Regional Weather Roundup
Issued by NWS Wakefield, VA

Home | Current Version | Previous Version | Graphics & Text | Print | Product List | Glossary On
Versions: 1 2 3 4 5 6 7 8 9 10 11 12 13 14 15 16 17 18 19 20 21 22 23 24 25 26 27
000
ASUS41 KAKQ 231814
RWRAKQ

REGIONAL WEATHER ROUNDUP
NATIONAL WEATHER SERVICE WAKEFIELD VA
100 PM EST THU FEB 23 2017

Note: "fair" indicates few or no clouds below 12,000 feet with no
significant weather and/or obstructions to visibility. * = Denotes
station may not report precipitation (e.g., rain,snow,etc.),
thunder or fog.

VAZ042-051-052>054-056-231900-
NORTHERN VIRGINIA

CITY           SKY/WX    TMP DP  RH WIND       PRES   REMARKS
WASH NATIONAL  MOSUNNY   68  55  63 S13       29.85F
DULLES         MOSUNNY   73  53  49 S10       29.84F
FORT BELVOIR   SUNNY     73  54  52 S8        29.85F
QUANTICO       MOSUNNY   64  54  69 SW7       29.86F
FREDERICKSBRG* SUNNY     74  57  55 S6        29.86F
STAFFORD*      SUNNY     72  54  53 SW8       29.90F
WARRENTON      SUNNY     76  49  37 SW9       29.84F
CULPEPER*      SUNNY     73  55  51 SW10      29.86F
MANASSAS*      SUNNY     75  54  47 S8        29.84F
LEESBURG*      SUNNY     77  55  47 MISG      29.83F
WINCHESTER     SUNNY     73  50  43 SW8       29.82F
FRONT ROYAL*   NOT AVBL
LURAY*         NOT AVBL
$$

VAZ048-049-060>072-079>083-231900-
CENTRAL AND SOUTH CENTRAL VIRGINIA

CITY           SKY/WX    TMP DP  RH WIND       PRES   REMARKS
RICHMOND       MOSUNNY   73  53  49 S14       29.89F
CHESTERFIELD*  FAIR      73  45  35 S13       29.91F
PETERSBURG*    MOSUNNY   73  49  43 S7        29.91F
HANOVER        MOSUNNY   73  52  47 S13       29.90F
TAPPAHANNOCK*  SUNNY     74  46  36 S12G17    29.89F
QUINTON*       NOT AVBL
CHARLOTTSVILLE SUNNY     76  54  46 S12       29.86F
GORDONSVILLE*  NOT AVBL
ORANGE*        SUNNY     73  52  46 CALM      29.87F
LOUISA*        MOSUNNY   77  57  50 S8        29.86F
BUMPASS*       NOT AVBL
FARMVILLE*     SUNNY     72  57  60 S9G17     29.89F
CREWE*         NOT AVBL
FORT PICKETT*  NOT AVBL
CHASE CITY*    NOT AVBL
CLARKSVILLE*   NOT AVBL
SOUTH HILL*    MOSUNNY   71  53  52 S8        29.96F
LAWRENCEVILLE* NOT AVBL
EMPORIA*       SUNNY     72  52  49 S6        29.93F
$$

VAZ088>098-231900-
SOUTHEAST VIRGINIA

CITY           SKY/WX    TMP DP  RH WIND       PRES   REMARKS
NORFOLK        PTSUNNY   72  55  55 S8        29.92F
VIRGINIA BEACH PTSUNNY   68  56  65 S6        29.92F
NORFOLK NAVAL  MOSUNNY   73  53  49 S8        29.93F
WEST POINT*    SUNNY     73  51  45 S7        29.91F
SALUDA*        NOT AVBL
NEWPORT NEWS   SUNNY     71  54  54 SW10      29.92F
LANGLEY AFB    MOSUNNY   71  55  56 S13       29.91F
FORT EUSTIS    SUNNY     73  56  56 SE6       29.89F
WILLIAMSBURG*  SUNNY     75  55  50 SW8       29.92F
HR EXEC AP*    NOT AVBL
FRANKLIN*      MOSUNNY   73  52  48 SE8       29.92F
US460-WAKEFLD  SUNNY     72  54  53 VRB5      29.91F
$$

VAZ020-022-025-037-045-231900-
WEST CENTRAL AND SOUTHWEST VIRGINIA

CITY           SKY/WX    TMP DP  RH WIND       PRES   REMARKS
STAUNTON*      SUNNY     70  53  53 S7        29.88F
WAYNESBORO*    NOT AVBL
HOT SPRINGS VA MOSUNNY   61  45  55 W5        29.94F
LYNCHBURG      NOT AVBL
DANVILLE       MOSUNNY   71  56  58 W5        29.91F
SOUTH BOSTON*  NOT AVBL
MARTINSVILLE   PTSUNNY   70  55  59 SE6       29.93F
ROANOKE        MOSUNNY   70  52  52 CALM      29.91F
BLACKSBURG     SUNNY     66  52  59 SW5       29.94F
DUBLIN*        SUNNY     68  56  64 S3        29.92F
MARION*        CLOUDY    67  50  54 CALM      29.94F
HILLSVILLE*    MOSUNNY   65  52  62 CALM      29.91F
RICHLANDS*     CLOUDY    61  51  70 W7        29.92F
WISE*          CLOUDY    63  50  63 CALM      29.92F
ABINGDON*      SUNNY     68  53  57 N3        29.91F
$$

MDZ021>025-VAZ099-100-231900-
SOUTHERN MARYLAND AND THE DELMARVA PENINSULA

CITY           SKY/WX    TMP DP  RH WIND       PRES   REMARKS
PATUXENT RIVER PTSUNNY   71  56  58 SW10G17   29.87F
BAY BRIDGE APT SUNNY     68  54  60 S13       29.85F
LEONARDTOWN    MOSUNNY   70  54  56 SW13      29.88F
DOVER          SUNNY     71  62  71 SW16      29.84F
GEORGETOWN     SUNNY     74  52  46 SW18G28   29.88F
EASTON         SUNNY     70  54  56 SW14      29.91F
CAMBRIDGE      SUNNY     70  55  60 SW9G18    29.88F
SALISBURY      MOSUNNY   71  53  52 SW17G24   29.89F
OCEAN CITY     CLOUDY    55  49  80 S10       29.90F
WALLOPS ISLAND PTSUNNY   64  55  72 S10       29.92F
ACCOMACK*      MOSUNNY   72  53  52 SW9G18    29.91F
$$

NCZ012>017-030>032-231900-
NORTH CENTRAL AND EASTERN NORTH CAROLINA

CITY           SKY/WX    TMP DP  RH WIND       PRES   REMARKS
ROANOKE RAPIDS FAIR      70  52  52 CALM      29.92F
RALEIGH        MOSUNNY   72  51  47 SE9       29.91F
ELIZABETH CITY PTSUNNY   70  54  56 E8        29.94F
AHOSKIE*         N/A     71  51  49 S3        29.93F
EDENTON*       PTSUNNY   72  54  52 SE6       29.94F
CURRITUCK*     PTSUNNY   71  54  55 SE5       29.94F
KILL DEVIL HLS NOT AVBL
MANTEO         PTSUNNY   65  55  68 E9        29.96F
CAPE HATTERAS  MOSUNNY   70  58  65 W6        29.95F
TARBORO*       NOT AVBL
GOLDSBORO      PTSUNNY   74  52  45 E10G17    29.90F
WASHINGTON     CLOUDY    72  51  47 S8        29.93F
GREENVILLE     MOSUNNY   73  52  46 SE5       29.95F
NEW BERN       PTSUNNY   73  56  54 SE9       29.94F
WILMINGTON     CLOUDY    72  56  57 E12       29.91F
$$

VAZ048-231900-
ELSEWHERE

CITY           SKY/WX    TMP DP  RH WIND       PRES   REMARKS
HARRISBURG PA  MOSUNNY   66  53  63 SE7       29.81F
BALTIMORE      MOSUNNY   75  54  47 SW6       29.83F
ANNAPOLIS      SUNNY     54  50  86 SE13      29.85F
ANDREWS AFB    SUNNY     73  54  51 SW14      29.84F
PHILADELPHIA   MOSUNNY   65  53  65 W7        29.85F
HENDERSON NC   SUNNY     70  49  46 S6        29.91F
GREENSBORO     PTSUNNY   72  53  51 SE6       29.90F
ROCKY MOUNT    PTSUNNY   74  52  46 SE7       29.92F
$$

VAZ100-231900-
MARINE

STATION/POSITION TIME  TEMP    WIND        PRES    WAVE   SWELL
                       AIR SEA DIR/SP/G            HT/PER HT/PER
                 (UTC) (F)     (DEG/KT/KT) (MB)    (FT/S) (FT/S)
CAPE MAY NJ      1748   64 43  140/  4/  7 1011.3F
LEWES DE         1748   71 43  250/ 12/ 18 1011.4F
OCEAN-CITY-INLET 1748   49 45  210/ 12/ 14 1013.2F
WACHAPREAGUE VA  1742   65 54  200/ 12/ 14 1013.1F
THOMAS POINT MD  1800   54 43  160/ 17/ 17   N/A
GOOSES REEF MD   1800   51 45  160/ 10/ 12 1012.0    1
COVE POINT MD    1742   49     180/  5/  7 1012.5F
SOLOMONS ISLAND  1742   65 45  220/ 14/ 19   N/A
BISHOPS HEAD MD  1748   56 48  180/  8/ 12 1012.6F
PINEY POINT MD   1748          230/ 12/ 13   N/A
POTOMAC MD       1800   59 45  240/  8/ 10 1010.9    1
CAMBRIDGE MD     1748   68 43  210/  8/ 13 1011.0F
LEWISETTA VA     1742   69 49  230/ 16/ 22 1011.5F
RAPPAHANNOCK LGT 1748          180/ 15/ 16 1013.4F
YORK RVR RNG VA  1742   58     210/ 10/ 11 1012.5F
YORKTOWN VA      1748          220/  6/ 14 1012.5F
JAMESTOWN VA     1800   65 53  230/  8/ 10   N/A     0
DOMINION TERM VA 1742   65     140/  2/  5 1013.4F
KIPTOPEKE VA     1748      47  180/  7/  8   N/A
CHES BAY BRIDGE  1742   63 47  180/  6/  7 1013.4F
CAPE HENRY VA    1742   67     140/  6/ 10   N/A
WILLOUBY STN VA  1742   62     280/  3/  3 1014.3F
S CRANEY ISL VA  1742   69     190/  4/  5 1013.2F
CAPE HENRY BUOY  1742      49                N/A     3/11   2/11
OFFSHORE WE BUOY 1751      49                N/A     3/10   2/11
64NM E OF VA BCH 1750   60 55  130/  2/  4 1014.6F   3/ 9   3/ 9
DUCK PIER NC     1742   55 48  130/  7/  9 1014.0F
44100 DUCK FRF   1705      49                N/A     3/11   2/11
44056 DUCK FRF   1730      51                N/A     3/11   2/11
OREGON INLET NC  1742   59 55   50/  3/  5 1014.5F
HATTERAS NC      1742   63 61  290/  8/  8 1014.1F
DIAMOND SHLS NC  1750   70 74  130/ 12/ 16 1014.0F   4/ 6   3/11
CAPE LOOKOUT NC  1800   67     150/  6/  7 1013.0F
$$




USA.gov is the U.S. government's official web portal to all federal, state and local government web resources and services.